Weather reports worldwide

Advertisment
Llerena, Spain (8336): temperature & dewpoint: 29.03.2020 00:00:00 - 04.04.2020 00:00:00 (CEST)Llerena, Spain (8336): wind speed & gusts: 29.03.2020 00:00:00 - 04.04.2020 00:00:00 (CEST)Llerena, Spain (8336): wind direction: 29.03.2020 00:00:00 - 04.04.2020 00:00:00 (CEST)Llerena, Spain (8336): reduced air pressure: 29.03.2020 00:00:00 - 04.04.2020 00:00:00 (CEST)Llerena, Spain (8336): visibility: 29.03.2020 00:00:00 - 04.04.2020 00:00:00 (CEST)Llerena, Spain (8336): sunshine duration: 29.03.2020 00:00:00 - 04.04.2020 00:00:00 (CEST)Llerena, Spain (8336): precipitation: 29.03.2020 00:00:00 - 04.04.2020 00:00:00 (CEST)
Date & Time tt [°C] td [°C] ff [km/h] ff [kn] fx [km/h] fx [kn] dd ppp [hPa] vv [km] sd [min] rr [mm]
04.04.2020 00:00:00 11,9 5,1 20 11 26 14 S 1015,2 20 0 0,0
03.04.2020 23:00:00 11,6 4,1 18 10 21 12 S 1015,4 20 0 0,0
03.04.2020 22:00:00 11,9 5,8 16 9 23 12 S 1014,8 20 0 0,0
03.04.2020 21:00:00 13,1 6,4 16 9 20 11 S 1014,2 20 0 0,0
03.04.2020 20:00:00 15,3 7,3 9 5 17 9 SSE 1013,6 20 25 -
03.04.2020 19:00:00 15,9 6,5 7 4 14 7 E 1013,4 20 4 0,0
03.04.2020 18:00:00 16,1 5,3 10 5 16 9 ESE 1013,4 20 14 0,0
03.04.2020 17:00:00 17,8 6,7 8 5 16 9 ESE 1013,2 20 42 0,0
03.04.2020 16:00:00 16,0 6,1 6 3 10 5 ESE 1014,2 20 16 0,0
03.04.2020 15:00:00 16,0 5,9 2 1 7 4 SSE 1014,9 20 14 0,0
03.04.2020 14:00:00 14,6 5,6 4 2 14 7 NNW 1015,7 20 1 -
03.04.2020 13:00:00 14,1 5,0 5 3 20 11 SSW 1016,3 20 31 0,0
03.04.2020 12:00:00 13,4 7,6 4 2 14 8 E 1016,7 20 23 0,0
03.04.2020 11:00:00 13,7 7,7 8 5 13 7 E 1016,2 20 60 0,0
03.04.2020 10:00:00 11,7 7,8 6 3 8 4 E 1016,4 20 60 0,0
03.04.2020 09:00:00 9,0 6,8 3 1 11 6 S 1016,8 20 49 0,0
03.04.2020 08:00:00 7,7 5,5 8 4 10 6 W 1016,5 20 0 -
03.04.2020 07:00:00 7,4 5,3 6 4 13 7 WSW 1016,3 20 0 0,0
03.04.2020 06:00:00 8,0 5,3 5 3 10 6 W 1015,9 20 0 0,0
03.04.2020 05:00:00 8,1 5,6 7 4 13 7 W 1016,0 20 0 0,0
03.04.2020 04:00:00 7,4 4,8 10 5 17 9 WSW 1016,6 20 0 0,0
03.04.2020 03:00:00 7,8 5,0 10 5 16 9 WSW 1016,9 20 0 0,0
03.04.2020 02:00:00 8,2 5,1 13 7 17 9 WSW 1016,9 20 0 -
03.04.2020 01:00:00 8,0 4,8 12 6 16 8 WSW 1017,1 20 0 0,0
03.04.2020 00:00:00 8,6 4,8 12 7 18 10 W 1016,7 20 0 0,0
02.04.2020 23:00:00 8,4 5,0 10 5 13 7 W 1016,7 20 0 0,0
02.04.2020 22:00:00 8,8 5,5 9 5 15 8 W 1016,0 20 0 0,0
02.04.2020 21:00:00 10,5 5,6 8 5 20 11 WNW 1014,8 20 4 0,0
02.04.2020 20:00:00 12,9 5,3 11 6 21 12 NNW 1013,8 20 45 -
02.04.2020 19:00:00 12,9 5,1 9 5 22 12 N 1013,6 20 23 0,0
02.04.2020 18:00:00 13,1 4,3 11 6 25 14 N 1013,0 20 33 0,0
02.04.2020 17:00:00 12,2 5,6 13 7 24 13 NNE 1013,1 20 44 0,0
02.04.2020 16:00:00 11,2 5,1 10 5 27 15 NNE 1013,0 20 19 0,0
02.04.2020 15:00:00 10,7 5,3 8 5 24 13 NNE 1013,2 20 8 0,0
02.04.2020 14:00:00 9,1 5,3 13 7 23 12 N 1013,4 20 10 -
02.04.2020 13:00:00 9,2 5,1 9 5 21 11 NNE 1013,1 20 9 0,0
02.04.2020 12:00:00 7,6 5,3 8 4 21 11 N 1013,5 20 0 0,0
02.04.2020 11:00:00 6,6 5,0 10 5 21 12 N 1013,1 20 1 0,0
02.04.2020 10:00:00 6,2 5,3 6 3 12 6 NE 1012,1 20 5 0,0
02.04.2020 09:00:00 5,5 4,6 6 3 13 7 ENE 1011,8 20 0 0,0
02.04.2020 08:00:00 5,6 4,6 5 3 12 6 NNW 1011,0 6 0 -
02.04.2020 07:00:00 5,3 4,1 2 1 8 5 NNW 1011,1 20 0 0,0
02.04.2020 06:00:00 6,2 5,1 3 2 12 6 N 1010,8 20 0 0,2
02.04.2020 05:00:00 6,4 5,1 5 3 10 5 W 1010,9 20 0 0,0
02.04.2020 04:00:00 6,4 4,8 7 4 14 7 SSE 1011,2 20 0 0,0
02.04.2020 03:00:00 6,5 5,0 5 3 23 12 E 1011,8 20 0 0,4
02.04.2020 02:00:00 7,2 5,6 17 9 39 21 S 1011,9 13 0 -
02.04.2020 01:00:00 7,6 6,2 24 13 35 19 SSE 1012,0 20 0 1,0
02.04.2020 00:00:00 7,8 5,9 20 11 35 19 S 1012,6 20 0 0,0
01.04.2020 23:00:00 7,6 5,6 18 10 31 17 S 1012,8 20 0 0,0
01.04.2020 22:00:00 7,7 5,5 20 11 31 17 S 1012,5 20 0 0,0
01.04.2020 21:00:00 7,7 5,3 16 9 23 13 SSE 1012,3 20 0 0,0
01.04.2020 20:00:00 8,5 5,8 13 7 26 14 S 1012,1 20 20 -
01.04.2020 19:00:00 9,0 5,3 11 6 24 13 S 1012,2 20 16 0,2
01.04.2020 18:00:00 8,7 5,6 16 9 25 13 S 1012,6 13 19 0,0
01.04.2020 17:00:00 9,0 7,1 16 8 34 18 SSW 1012,6 9 29 0,6
01.04.2020 16:00:00 8,8 5,9 23 12 40 21 SSW 1012,8 20 8 0,2
01.04.2020 15:00:00 11,2 3,9 13 7 26 14 SW 1011,9 20 19 0,0
01.04.2020 14:00:00 11,3 3,4 16 9 28 15 SW 1012,5 20 17 -
01.04.2020 13:00:00 11,7 4,8 12 6 22 12 S 1012,7 20 46 0,0
01.04.2020 12:00:00 10,0 3,2 10 5 20 11 WSW 1013,3 20 60 0,0
01.04.2020 11:00:00 8,3 2,3 11 6 17 9 SW 1013,5 20 60 0,0
01.04.2020 10:00:00 6,5 3,2 8 5 12 6 SW 1013,8 20 54 0,0
01.04.2020 09:00:00 4,1 2,9 6 3 11 6 SW 1013,9 20 20 0,0
01.04.2020 08:00:00 3,7 1,5 3 2 11 6 WSW 1013,2 20 0 -
01.04.2020 07:00:00 3,3 2,1 5 3 6 3 S 1013,0 20 0 0,2
01.04.2020 06:00:00 3,2 1,9 4 2 7 4 S 1012,8 20 0 0,0
01.04.2020 05:00:00 4,1 2,7 6 3 9 5 WSW 1012,5 17 0 0,0
01.04.2020 04:00:00 4,8 3,2 7 4 12 6 WSW 1012,3 20 0 0,0
01.04.2020 03:00:00 5,4 3,9 5 3 14 7 SSW 1012,0 18 0 0,0
01.04.2020 02:00:00 6,1 5,0 9 5 14 8 W 1012,1 14 0 -
01.04.2020 01:00:00 5,9 4,5 9 5 18 10 WSW 1011,9 10 0 0,0
01.04.2020 00:00:00 6,7 5,5 8 4 13 7 WSW 1011,1 8 0 0,0
31.03.2020 23:00:00 7,0 5,6 6 3 10 6 WNW 1010,7 10 0 0,0
31.03.2020 22:00:00 7,7 5,9 8 4 13 7 WSW 1009,2 19 0 0,0
31.03.2020 21:00:00 9,2 7,3 8 4 19 11 WSW 1007,7 20 0 0,0
31.03.2020 20:00:00 9,6 7,8 13 7 27 14 WSW 1006,7 20 0 -
31.03.2020 19:00:00 10,1 8,3 15 8 25 14 SW 1005,6 20 0 0,2
31.03.2020 18:00:00 10,6 8,7 13 7 26 14 SW 1005,0 20 0 0,6
31.03.2020 17:00:00 10,7 8,4 13 7 51 27 SW 1004,3 20 13 4,2
31.03.2020 16:00:00 12,0 8,1 - - - - - 1003,5 20 0 0,0
31.03.2020 15:00:00 13,0 8,9 24 13 42 23 S 1003,1 20 23 0,0
31.03.2020 14:00:00 11,6 8,7 19 10 34 18 SSW 1003,7 20 15 -
31.03.2020 13:00:00 12,4 8,7 22 12 36 19 S 1003,4 20 33 0,0
31.03.2020 12:00:00 11,5 9,2 18 10 32 17 SSW 1003,7 20 19 0,0
31.03.2020 11:00:00 10,0 8,1 19 10 29 15 SW 1003,8 20 39 0,0
31.03.2020 10:00:00 9,3 8,4 12 7 27 14 WSW 1003,5 20 20 0,2
31.03.2020 09:00:00 8,4 7,4 20 11 37 20 SW 1002,9 3,9 0 0,6
31.03.2020 08:00:00 8,5 7,6 21 11 42 23 S 1001,6 7 0 -
31.03.2020 07:00:00 8,0 7,3 11 6 17 9 E 1001,7 2,9 0 3,0
31.03.2020 06:00:00 7,9 7,1 9 5 21 11 ESE 1002,3 4,5 0 4,6
31.03.2020 05:00:00 8,1 7,0 16 9 31 17 ESE 1002,8 6 0 2,8
31.03.2020 04:00:00 8,2 7,0 22 12 40 22 SE 1003,3 16 0 0,8
31.03.2020 03:00:00 8,1 6,7 23 12 36 19 SSE 1003,9 20 0 0,0
31.03.2020 02:00:00 8,2 6,8 24 13 48 26 SSE 1004,4 20 0 -
31.03.2020 01:00:00 8,2 6,1 30 16 44 24 SSE 1005,9 20 0 0,0
31.03.2020 00:00:00 8,2 5,0 21 11 34 18 SSE 1006,7 20 0 0,0
30.03.2020 23:00:00 8,2 5,1 21 11 32 18 SSE 1007,0 20 0 0,0
30.03.2020 22:00:00 7,8 5,0 22 12 31 17 S 1007,8 20 0 0,0
30.03.2020 21:00:00 7,7 5,1 18 10 27 14 S 1008,1 20 0 0,2
30.03.2020 20:00:00 8,3 6,2 14 8 20 11 S 1009,0 20 0 -
30.03.2020 19:00:00 8,5 7,0 8 4 16 9 WSW 1009,4 16 0 2,4
30.03.2020 18:00:00 8,8 7,3 12 7 29 16 WSW 1009,9 11 0 2,8
30.03.2020 17:00:00 10,8 6,4 21 11 29 16 WSW 1009,1 20 0 0,2
30.03.2020 16:00:00 13,4 6,5 12 7 27 15 SSW 1008,9 20 0 0,0
30.03.2020 15:00:00 13,9 5,8 12 7 29 16 S 1009,6 20 1 0,0
30.03.2020 14:00:00 13,3 8,8 16 9 24 13 SSW 1010,7 20 4 -
30.03.2020 13:00:00 13,8 8,7 14 8 22 12 S 1010,9 20 21 0,0
30.03.2020 12:00:00 13,5 8,5 7 4 15 8 S 1011,7 20 8 0,0
30.03.2020 11:00:00 11,9 8,5 9 5 21 11 SSE 1012,1 20 0 0,0
30.03.2020 10:00:00 10,5 7,8 9 5 15 8 SSW 1012,9 20 0 0,0
30.03.2020 09:00:00 9,5 7,8 10 5 13 7 SW 1013,4 20 3 0,0
30.03.2020 08:00:00 8,4 6,7 12 6 14 8 SW 1013,7 20 0 -
30.03.2020 07:00:00 8,3 6,4 10 5 13 7 SW 1013,7 20 0 0,0
30.03.2020 06:00:00 8,7 6,5 9 5 13 7 WSW 1013,9 20 0 0,0
30.03.2020 05:00:00 8,6 6,1 13 7 16 9 SW 1014,7 20 0 0,0
30.03.2020 04:00:00 9,2 6,1 9 5 13 7 SW 1015,2 20 0 0,0
30.03.2020 03:00:00 9,4 5,9 7 4 10 6 WSW 1015,7 20 0 0,0
30.03.2020 02:00:00 9,1 5,8 3 2 5 3 SSE 1016,4 20 0 -
30.03.2020 01:00:00 10,3 6,8 2 1 9 5 W 1016,7 20 0 0,0
30.03.2020 00:00:00 - - - - - - - - - - -
29.03.2020 23:00:00 10,9 7,6 9 5 16 9 W 1017,2 20 0 0,0
29.03.2020 22:00:00 11,6 7,1 12 6 22 12 SW 1016,9 20 0 0,0
29.03.2020 21:00:00 12,1 7,6 9 5 17 9 SW 1016,2 20 0 0,0
29.03.2020 20:00:00 13,5 7,0 7 4 13 7 SSW 1015,9 20 0 -
29.03.2020 19:00:00 15,1 6,8 6 4 13 7 SSW 1015,6 20 0 0,0
29.03.2020 18:00:00 14,9 5,9 7 4 12 6 SW 1015,8 20 0 0,0
29.03.2020 17:00:00 15,6 5,5 5 3 9 5 S 1016,1 20 0 0,0
29.03.2020 16:00:00 15,9 6,1 4 2 9 5 SW 1016,5 20 0 0,0
29.03.2020 15:00:00 15,6 6,1 3 2 10 6 SE 1017,1 20 0 0,0
29.03.2020 14:00:00 15,2 6,7 3 2 9 5 W 1017,8 20 14 -
29.03.2020 13:00:00 15,2 6,5 7 4 13 7 ENE 1018,1 20 60 0,0
29.03.2020 12:00:00 13,8 6,1 5 3 12 6 NE 1018,9 20 60 0,0
29.03.2020 11:00:00 12,9 6,7 6 4 13 7 NNW 1019,1 20 60 0,0
29.03.2020 10:00:00 10,6 7,3 5 3 13 7 WSW 1019,3 17 52 0,0
29.03.2020 09:00:00 7,7 5,6 7 4 11 6 WSW 1020,1 20 0 0,0
29.03.2020 08:00:00 7,3 5,1 9 5 15 8 WSW 1019,9 20 0 -
29.03.2020 07:00:00 7,6 5,0 9 5 16 8 SW 1019,4 20 0 0,0
29.03.2020 06:00:00 7,9 4,8 9 5 13 7 WSW 1019,3 20 0 0,0
29.03.2020 05:00:00 8,6 5,0 11 6 14 8 WSW 1019,3 20 0 0,0
29.03.2020 04:00:00 8,6 3,8 7 4 12 7 SW 1019,7 20 0 0,0
29.03.2020 03:00:00 8,9 3,6 12 6 17 9 SW 1019,9 20 0 0,0
29.03.2020 02:00:00 9,0 3,9 14 8 16 9 SW 1020,0 20 0 -
29.03.2020 01:00:00 8,7 3,8 13 7 16 9 SSW 1019,9 20 0 0,0
29.03.2020 00:00:00 - - - - - - - - - - -

tt = temperature
td = dewpoint
ff = wind speed
fx = gusts
dd = wind direction
ppp = reduced air pressure
vv = visibility
sd = sunshine duration
rr = precipitation

Next stations